This demonstration page uses our WeatherBlox Daily Observations layout. Learn more.

Left ArrowRight Arrow

44.8408, -93.29828

Hourly Observations for March 9, 2015

Temp ( °F °C ) Dew Point ( °F °C ) Humidity (%) Winds ( mph kmh ) Pressure ( in mb ) Visibility ( mi km ) Precip ( " mm )
12:53 am 00:53 Mostly Cloudy 35 1.7 26 -3.3 70 70 SSW 5 7 30.07 1018 10 16 0.00 0.00
1:53 am 01:53 Partly Cloudy 32 0 25 -3.9 75 75 SSW 5 7 30.06 1018 10 16 0.00 0.00
2:53 am 02:53 Mostly Clear 34 1.1 27 -2.8 76 76 SSW 5 7 30.06 1018 10 16 0.00 0.00
3:53 am 03:53 Cloudy 34 1.1 29 -1.7 82 82 SSW 8 13 30.05 1018 10 16 0.00 0.00
4:53 am 04:53 Cloudy 35 1.7 29 -1.7 78 78 SW 5 7 30.04 1017 10 16 0.00 0.00
5:53 am 05:53 Cloudy 35 1.7 30 -1.1 82 82 Calm 30.04 1017 10 16 0.00 0.00
6:53 am 06:53 Cloudy 35 1.7 30 -1.1 82 82 S 5 7 30.03 1017 10 16 0.00 0.00
7:53 am 07:53 Mostly Cloudy 37 2.8 29 -1.7 73 73 S 8 13 30.02 1017 10 16 0.00 0.00
8:53 am 08:53 Mostly Cloudy 37 2.8 28 -2.2 70 70 SSW 8 13 30.01 1016 10 16 0.00 0.00
9:53 am 09:53 Partly Cloudy 42 5.6 28 -2.2 58 58 SSW 10 17 30.02 1017 10 16 0.00 0.00
10:53 am 10:53 Mostly Cloudy 45 7.2 29 -1.7 54 54 SW 13 20 30.01 1016 10 16 0.00 0.00
11:53 am 11:53 Mostly Cloudy 48 8.9 30 -1.1 50 50 SW 12 19 30.00 1016 10 16 0.00 0.00
12:53 pm 12:53 Mostly Cloudy 50 10 30 -1.1 46 46 SW 16 26 29.99 1016 10 16 0.00 0.00
1:53 pm 13:53 Mostly Cloudy 55 13 32 0 41 41 SW 13 20 29.97 1015 10 16 0.00 0.00
2:53 pm 14:53 Mostly Cloudy 55 12.8 31 -0.6 40 40 SW 15 24 29.95 1014 10 16 0.00 0.00
3:53 pm 15:53 Mostly Cloudy 56 13.3 31 -0.6 39 39 WSW 15 24 29.94 1014 10 16 0.00 0.00
4:53 pm 16:53 Mostly Cloudy 57 13.9 31 -0.6 37 37 SW 10 17 29.92 1013 10 16 0.00 0.00
5:53 pm 17:53 Mostly Cloudy 57 13.9 32 0 39 39 SW 12 19 29.91 1013 10 16 0.00 0.00
6:53 pm 18:53 Partly Cloudy 54 12.2 32 0 43 43 SW 8 13 29.91 1013 10 16 0.00 0.00
7:53 pm 19:53 Partly Cloudy 52 11.1 35 1.7 53 53 SSW 10 17 29.91 1013 10 16 0.00 0.00
8:53 pm 20:53 Partly Cloudy 50 10 36 2.2 59 59 SSW 7 11 29.92 1013 10 16 0.00 0.00
9:53 pm 21:53 Clear 48 8.9 36 2.2 63 63 SSW 9 15 29.92 1013 10 16 0.00 0.00
10:53 pm 22:53 Clear 47 8.3 35 1.7 63 63 S 7 11 29.91 1013 10 16 0.00 0.00
11:53 pm 23:53 Clear 45 7.2 34 1.1 66 66 SSW 9 15 29.91 1013 10 16 0.00 0.00

Powered by AerisWeather